START_TIME,STEP,MOV.,H8,t_acc.,H43,t_acc.,M25,t_acc.,H9,t_acc.
1979-08-06 18:00:28.000 ,0,1,0.,12.0,0.,12.0,0.,12.0,0.,12.0
1979-08-06 18:00:40.000 ,0,1,0.,12.0,0.,12.0,0.,12.0,0.,12.0
1979-08-06 18:00:52.000 ,4,1,0.,12.0,0.,12.0,0.,12.0,0.,12.0
1979-08-06 18:01:04.000 ,4,1,0.,12.0,0.,12.0,0.,12.0,0.,12.0
1979-08-06 18:01:16.000 ,7,1,0.,12.0,0.,12.0,0.,12.0,0.,12.0
1979-08-06 18:01:28.000 ,7,1,0.,12.0,0.,12.0,0.,12.0,0.,12.0
1979-08-06 18:01:40.000 ,3,1,0.,12.0,0.,12.0,0.,12.0,0.,12.0
1979-08-06 18:01:52.000 ,3,1,0.,12.0,0.,12.0,0.,12.0,0.,12.0
1979-08-06 18:02:04.000 ,0,1,0.,12.0,0.,12.0,0.,12.0,0.,12.0
1979-08-06 18:02:16.000 ,0,1,0.,12.0,0.,12.0,0.,12.0,0.,12.0
1979-08-06 18:02:28.000 ,4,1,0.,12.0,0.,12.0,0.,12.0,0.,12.0
1979-08-06 18:02:40.000 ,4,1,0.,12.0,0.,12.0,0.,12.0,0.,12.0
1979-08-06 18:02:52.000 ,7,1,0.,12.0,0.,12.0,0.,12.0,0.,12.0
1979-08-06 18:03:04.000 ,7,1,0.,12.0,0.,12.0,0.,12.0,0.,12.0
1979-08-06 18:03:16.000 ,3,1,0.,12.0,0.,12.0,0.,12.0,0.,12.0
1979-08-06 18:03:28.000 ,3,1,0.,12.0,0.,12.0,0.,12.0,0.,12.0
1979-08-06 18:03:40.000 ,0,1,0.,12.0,0.,12.0,0.,12.0,0.,12.0
1979-08-06 18:03:52.000 ,0,1,0.,12.0,0.,12.0,0.,12.0,0.,12.0
1979-08-06 18:04:04.000 ,4,1,0.,12.0,0.,12.0,0.,12.0,0.,12.0
1979-08-06 18:04:16.000 ,4,1,0.,12.0,0.,12.0,0.,12.0,0.,12.0
1979-08-06 18:04:28.000 ,7,1,0.,12.0,0.,12.0,0.,12.0,0.,12.0
1979-08-06 18:04:40.000 ,7,1,0.,12.0,0.,12.0,0.,12.0,0.,12.0
1979-08-06 18:04:52.000 ,3,1,0.,12.0,0.,12.0,0.,12.0,0.,12.0
1979-08-06 18:05:04.000 ,3,1,0.,12.0,0.,12.0,0.,12.0,0.,12.0
1979-08-06 18:05:16.000 ,0,1,0.,12.0,0.,12.0,0.,12.0,0.,12.0
1979-08-06 18:05:28.000 ,0,1,0.,12.0,0.,12.0,0.,12.0,0.,12.0
1979-08-06 18:05:40.000 ,0,0,0.,12.0,0.,12.0,0.,12.0,0.,12.0
1979-08-06 18:05:52.000 ,0,0,0.,12.0,0.,12.0,0.,12.0,0.,12.0
1979-08-06 18:06:04.000 ,0,0,0.,12.0,0.,12.0,0.,12.0,0.,12.0
1979-08-06 18:06:16.000 ,0,0,0.,12.0,0.,12.0,0.,12.0,0.,12.0
1979-08-06 18:06:28.000 ,5,0,0.,12.0,0.,12.0,0.,12.0,0.,12.0
1979-08-06 18:06:40.000 ,5,0,0.,12.0,0.,12.0,0.,12.0,0.,12.0
1979-08-06 18:06:52.000 ,5,0,0.,12.0,0.,12.0,0.,12.0,0.,12.0
1979-08-06 18:07:04.000 ,5,0,0.,12.0,0.,12.0,0.,12.0,0.,12.0
1979-08-06 18:07:16.000 ,4,0,0.,12.0,0.,12.0,0.,12.0,0.,12.0
1979-08-06 18:07:28.000 ,4,0,0.,12.0,0.,12.0,0.,12.0,0.,12.0
1979-08-06 18:07:40.000 ,4,0,0.,12.0,0.,12.0,0.,12.0,0.,12.0
1979-08-06 18:07:52.000 ,4,0,0.,12.0,0.,12.0,0.,12.0,0.,12.0
1979-08-06 18:08:04.000 ,3,0,0.,12.0,0.,12.0,0.,12.0,0.,12.0
1979-08-06 18:08:16.000 ,3,0,0.,12.0,0.,12.0,0.,12.0,0.,12.0
1979-08-06 18:08:28.000 ,3,0,0.,12.0,0.,12.0,0.,12.0,0.,12.0
1979-08-06 18:08:40.000 ,3,0,0.,12.0,0.,12.0,0.,12.0,0.,12.0
1979-08-06 18:08:52.000 ,2,0,0.,12.0,0.,12.0,0.,12.0,0.,12.0
1979-08-06 18:09:04.000 ,2,0,0.,12.0,0.,12.0,0.,12.0,0.,12.0
1979-08-06 18:09:16.000 ,2,0,0.,12.0,0.,12.0,0.,12.0,0.,12.0
1979-08-06 18:09:28.000 ,2,0,0.,12.0,0.,12.0,0.,12.0,0.,12.0
1979-08-06 18:09:40.000 ,1,0,0.,12.0,0.,12.0,0.,12.0,0.,12.0
1979-08-06 18:09:52.000 ,1,0,0.,12.0,0.,12.0,0.,12.0,0.,12.0
1979-08-06 18:10:04.000 ,1,0,0.,12.0,0.,12.0,0.,12.0,0.,12.0
1979-08-06 18:10:16.000 ,1,0,0.,12.0,0.,12.0,0.,12.0,0.,12.0
1979-08-06 18:10:28.000 ,0,0,0.,12.0,0.,12.0,0.,12.0,0.,12.0
1979-08-06 18:10:40.000 ,0,0,0.,12.0,0.,12.0,0.,12.0,0.,12.0
1979-08-06 18:10:52.000 ,0,0,0.,12.0,0.,12.0,0.,12.0,0.,12.0
1979-08-06 18:11:04.000 ,0,0,0.,12.0,0.,12.0,0.,12.0,0.,12.0
1979-08-06 18:11:16.000 ,0,0,0.,12.0,0.,12.0,0.,12.0,0.,12.0
1979-08-06 18:11:28.000 ,0,0,,0,,0,,0,,0
1979-08-06 18:11:40.000 ,0,0,,0,,0,,0,,0
1979-08-06 18:11:52.000 ,0,0,,0,,0,,0,,0
1979-08-06 18:11:40.000 ,0,0,0.,12.0,0.,12.0,0.,12.0,0.,12.0
1979-08-06 18:11:52.000 ,0,0,0.,12.0,0.,12.0,0.,12.0,0.,12.0
1979-08-06 18:12:04.000 ,1,0,0.,12.0,0.,12.0,0.,12.0,0.,12.0
1979-08-06 18:12:16.000 ,1,0,0.,12.0,0.,12.0,0.,12.0,0.,12.0
1979-08-06 18:12:28.000 ,1,0,0.,12.0,0.,12.0,0.,12.0,0.,12.0
1979-08-06 18:12:40.000 ,1,0,0.,12.0,0.,12.0,0.,12.0,0.,12.0
1979-08-06 18:12:52.000 ,2,0,0.,12.0,0.,12.0,0.,12.0,0.,12.0
1979-08-06 18:13:04.000 ,2,0,0.,12.0,0.,12.0,0.,12.0,0.,12.0
1979-08-06 18:13:16.000 ,2,0,0.,12.0,0.,12.0,0.,12.0,0.,12.0
1979-08-06 18:13:28.000 ,2,0,0.,12.0,0.,12.0,0.,12.0,0.,12.0
1979-08-06 18:13:40.000 ,3,0,0.,12.0,0.,12.0,0.,12.0,0.,12.0
1979-08-06 18:13:52.000 ,3,0,0.,12.0,0.,12.0,0.,12.0,0.,12.0
1979-08-06 18:14:04.000 ,3,0,0.,12.0,0.,12.0,0.,12.0,0.,12.0
1979-08-06 18:14:16.000 ,3,0,0.,12.0,0.,12.0,0.,12.0,0.,12.0
1979-08-06 18:14:28.000 ,4,0,0.,12.0,0.,12.0,0.,12.0,0.,12.0
1979-08-06 18:14:40.000 ,4,0,0.,12.0,0.,12.0,0.,12.0,0.,12.0
1979-08-06 18:14:52.000 ,4,0,0.,12.0,0.,12.0,0.,12.0,0.,12.0
1979-08-06 18:15:04.000 ,4,0,0.,12.0,0.,12.0,0.,12.0,0.,12.0
1979-08-06 18:15:16.000 ,5,0,0.,12.0,0.,12.0,0.,12.0,0.,12.0
1979-08-06 18:15:28.000 ,5,0,0.,12.0,0.,12.0,0.,12.0,0.,12.0
1979-08-06 18:15:40.000 ,5,0,0.,12.0,0.,12.0,0.,12.0,0.,12.0
1979-08-06 18:15:52.000 ,5,0,0.,12.0,0.,12.0,0.,12.0,0.,12.0
1979-08-06 18:16:04.000 ,6,0,0.,12.0,0.,12.0,0.,12.0,0.,12.0
1979-08-06 18:16:16.000 ,6,0,0.,12.0,0.,12.0,0.,12.0,0.,12.0
1979-08-06 18:16:28.000 ,6,0,0.,12.0,0.,12.0,0.,12.0,0.,12.0
1979-08-06 18:16:40.000 ,6,0,0.,12.0,0.,12.0,1.,12.0,0.,12.0
1979-08-06 18:16:52.000 ,7,0,0.,12.0,0.,12.0,0.,12.0,0.,12.0
1979-08-06 18:17:04.000 ,7,0,0.,12.0,0.,12.0,0.,12.0,0.,12.0
1979-08-06 18:17:16.000 ,7,0,0.,12.0,0.,12.0,0.,12.0,0.,12.0
1979-08-06 18:17:28.000 ,7,0,0.,12.0,0.,12.0,0.,12.0,0.,12.0
1979-08-06 18:17:40.000 ,7,0,0.,12.0,0.,12.0,0.,12.0,0.,12.0
1979-08-06 18:17:52.000 ,7,0,0.,12.0,0.,12.0,0.,12.0,0.,12.0
1979-08-06 18:18:04.000 ,7,0,0.,12.0,0.,12.0,0.,12.0,0.,12.0
1979-08-06 18:18:16.000 ,7,0,0.,12.0,0.,12.0,0.,12.0,0.,12.0
1979-08-06 18:18:28.000 ,6,0,0.,12.0,0.,12.0,0.,12.0,0.,12.0
1979-08-06 18:18:40.000 ,6,0,0.,12.0,0.,12.0,0.,12.0,0.,12.0
1979-08-06 18:18:52.000 ,6,0,0.,12.0,0.,12.0,0.,12.0,0.,12.0
1979-08-06 18:19:04.000 ,6,0,0.,12.0,0.,12.0,0.,12.0,0.,12.0
1979-08-06 18:19:16.000 ,5,0,0.,12.0,0.,12.0,0.,12.0,0.,12.0
1979-08-06 18:19:28.000 ,5,0,0.,12.0,0.,12.0,0.,12.0,0.,12.0
1979-08-06 18:19:40.000 ,5,0,0.,12.0,0.,12.0,0.,12.0,0.,12.0
1979-08-06 18:19:52.000 ,5,0,1.,12.0,0.,12.0,0.,12.0,0.,12.0
1979-08-06 18:20:04.000 ,4,0,0.,12.0,0.,12.0,0.,12.0,0.,12.0
1979-08-06 18:20:16.000 ,4,0,0.,12.0,0.,12.0,0.,12.0,0.,12.0
1979-08-06 18:20:28.000 ,4,0,0.,12.0,0.,12.0,0.,12.0,0.,12.0
1979-08-06 18:20:40.000 ,4,0,0.,12.0,0.,12.0,0.,12.0,0.,12.0
1979-08-06 18:20:52.000 ,3,0,0.,12.0,0.,12.0,0.,12.0,0.,12.0
1979-08-06 18:21:04.000 ,3,0,0.,12.0,0.,12.0,0.,12.0,0.,12.0
1979-08-06 18:21:16.000 ,3,0,0.,12.0,0.,12.0,0.,12.0,0.,12.0
1979-08-06 18:21:28.000 ,3,0,0.,12.0,0.,12.0,0.,12.0,0.,12.0
1979-08-06 18:21:40.000 ,2,0,0.,12.0,0.,12.0,0.,12.0,0.,12.0
1979-08-06 18:21:52.000 ,2,0,0.,12.0,0.,12.0,0.,12.0,0.,12.0
1979-08-06 18:22:04.000 ,2,0,0.,12.0,0.,12.0,0.,12.0,0.,12.0
1979-08-06 18:22:16.000 ,2,0,0.,12.0,0.,12.0,0.,12.0,0.,12.0
1979-08-06 18:22:28.000 ,1,0,0.,12.0,0.,12.0,0.,12.0,0.,12.0
1979-08-06 18:22:40.000 ,1,0,0.,12.0,0.,12.0,0.,12.0,0.,12.0
1979-08-06 18:22:52.000 ,1,0,0.,12.0,0.,12.0,0.,12.0,0.,12.0
1979-08-06 18:23:04.000 ,1,0,0.,12.0,0.,12.0,0.,12.0,0.,12.0
1979-08-06 18:23:16.000 ,0,0,0.,12.0,0.,12.0,0.,12.0,0.,12.0
1979-08-06 18:23:28.000 ,0,0,0.,12.0,0.,12.0,0.,12.0,0.,12.0
1979-08-06 18:23:40.000 ,0,0,0.,12.0,0.,12.0,0.,12.0,0.,12.0
1979-08-06 18:23:52.000 ,0,0,0.,12.0,0.,12.0,0.,12.0,0.,12.0
1979-08-06 18:24:04.000 ,0,0,0.,12.0,0.,12.0,0.,12.0,0.,12.0
1979-08-06 18:24:16.000 ,0,0,0.,12.0,0.,12.0,0.,12.0,0.,12.0
1979-08-06 18:24:28.000 ,0,0,0.,12.0,0.,12.0,0.,12.0,0.,12.0
1979-08-06 18:24:40.000 ,0,0,0.,12.0,0.,12.0,0.,12.0,0.,12.0
1979-08-06 18:24:52.000 ,1,0,0.,12.0,0.,12.0,0.,12.0,0.,12.0
1979-08-06 18:25:04.000 ,1,0,0.,12.0,0.,12.0,0.,12.0,0.,12.0
1979-08-06 18:25:16.000 ,1,0,0.,12.0,0.,12.0,0.,12.0,0.,12.0
1979-08-06 18:25:28.000 ,1,0,0.,12.0,0.,12.0,0.,12.0,0.,12.0
1979-08-06 18:25:40.000 ,2,0,0.,12.0,0.,12.0,0.,12.0,0.,12.0
1979-08-06 18:25:52.000 ,2,0,0.,12.0,0.,12.0,0.,12.0,0.,12.0
1979-08-06 18:26:04.000 ,2,0,0.,12.0,0.,12.0,0.,12.0,0.,12.0
1979-08-06 18:26:16.000 ,2,0,0.,12.0,0.,12.0,0.,12.0,0.,12.0
1979-08-06 18:26:28.000 ,3,0,0.,12.0,0.,12.0,0.,12.0,0.,12.0
1979-08-06 18:26:40.000 ,3,0,0.,12.0,0.,12.0,0.,12.0,0.,12.0
1979-08-06 18:26:52.000 ,3,0,0.,12.0,0.,12.0,0.,12.0,0.,12.0
1979-08-06 18:27:04.000 ,3,0,0.,12.0,0.,12.0,0.,12.0,0.,12.0
1979-08-06 18:27:16.000 ,4,0,0.,12.0,0.,12.0,0.,12.0,0.,12.0
1979-08-06 18:27:28.000 ,4,0,0.,12.0,0.,12.0,0.,12.0,0.,12.0
1979-08-06 18:27:40.000 ,4,0,0.,12.0,0.,12.0,0.,12.0,0.,12.0
1979-08-06 18:27:52.000 ,4,0,0.,12.0,0.,12.0,0.,12.0,0.,12.0
1979-08-06 18:28:04.000 ,5,0,0.,12.0,0.,12.0,0.,12.0,0.,12.0
1979-08-06 18:28:16.000 ,5,0,0.,12.0,0.,12.0,0.,12.0,0.,12.0
1979-08-06 18:28:28.000 ,5,0,0.,12.0,0.,12.0,0.,12.0,0.,12.0
1979-08-06 18:28:40.000 ,5,0,0.,12.0,0.,12.0,0.,12.0,0.,12.0
1979-08-06 18:28:52.000 ,6,0,0.,12.0,0.,12.0,0.,12.0,0.,12.0
1979-08-06 18:29:04.000 ,6,0,0.,12.0,0.,12.0,0.,12.0,0.,12.0
1979-08-06 18:29:16.000 ,6,0,0.,12.0,0.,12.0,0.,12.0,0.,12.0
1979-08-06 18:29:28.000 ,6,0,0.,12.0,0.,12.0,0.,12.0,0.,12.0
1979-08-06 18:29:40.000 ,7,0,0.,12.0,0.,12.0,0.,12.0,0.,12.0
1979-08-06 18:29:52.000 ,7,0,0.,12.0,0.,12.0,0.,12.0,0.,12.0
1979-08-06 18:30:04.000 ,7,0,0.,12.0,0.,12.0,0.,12.0,0.,12.0
1979-08-06 18:30:16.000 ,7,0,0.,12.0,0.,12.0,0.,12.0,0.,12.0
1979-08-06 18:30:28.000 ,7,0,0.,12.0,0.,12.0,0.,12.0,0.,12.0
1979-08-06 18:30:40.000 ,7,0,0.,12.0,0.,12.0,0.,12.0,0.,12.0
1979-08-06 18:30:52.000 ,7,0,0.,12.0,0.,12.0,0.,12.0,0.,12.0
1979-08-06 18:31:04.000 ,7,0,0.,12.0,0.,12.0,0.,12.0,0.,12.0
1979-08-06 18:31:16.000 ,6,0,0.,12.0,0.,12.0,0.,12.0,0.,12.0
1979-08-06 18:31:28.000 ,6,0,0.,12.0,0.,12.0,0.,12.0,0.,12.0
1979-08-06 18:31:40.000 ,6,0,0.,12.0,0.,12.0,0.,12.0,0.,12.0
1979-08-06 18:31:52.000 ,6,0,0.,12.0,0.,12.0,0.,12.0,0.,12.0
1979-08-06 18:32:04.000 ,5,0,0.,12.0,0.,12.0,0.,12.0,0.,12.0
1979-08-06 18:32:16.000 ,5,0,0.,12.0,0.,12.0,0.,12.0,0.,12.0
1979-08-06 18:32:28.000 ,5,0,0.,12.0,0.,12.0,0.,12.0,0.,12.0
1979-08-06 18:32:40.000 ,5,0,0.,12.0,0.,12.0,0.,12.0,0.,12.0
1979-08-06 18:32:52.000 ,4,0,0.,12.0,0.,12.0,0.,12.0,0.,12.0
1979-08-06 18:33:04.000 ,4,0,0.,12.0,0.,12.0,0.,12.0,0.,12.0
1979-08-06 18:33:16.000 ,4,0,0.,12.0,0.,12.0,0.,12.0,0.,12.0
1979-08-06 18:33:28.000 ,4,0,0.,12.0,0.,12.0,0.,12.0,0.,12.0
1979-08-06 18:33:40.000 ,3,0,0.,12.0,0.,12.0,0.,12.0,0.,12.0
1979-08-06 18:33:52.000 ,3,0,0.,12.0,0.,12.0,0.,12.0,0.,12.0
1979-08-06 18:34:04.000 ,3,0,0.,12.0,0.,12.0,0.,12.0,0.,12.0
1979-08-06 18:34:16.000 ,3,0,0.,12.0,0.,12.0,0.,12.0,0.,12.0
1979-08-06 18:34:28.000 ,2,0,0.,12.0,0.,12.0,0.,12.0,0.,12.0
1979-08-06 18:34:40.000 ,2,0,0.,12.0,0.,12.0,0.,12.0,0.,12.0
1979-08-06 18:34:52.000 ,2,0,0.,12.0,0.,12.0,0.,12.0,0.,12.0
1979-08-06 18:35:04.000 ,2,0,0.,12.0,0.,12.0,0.,12.0,0.,12.0
1979-08-06 18:35:16.000 ,1,0,0.,12.0,0.,12.0,0.,12.0,0.,12.0
1979-08-06 18:35:28.000 ,1,0,0.,12.0,0.,12.0,0.,12.0,0.,12.0
1979-08-06 18:35:40.000 ,1,0,0.,12.0,0.,12.0,0.,12.0,0.,12.0
1979-08-06 18:35:52.000 ,1,0,0.,12.0,0.,12.0,0.,12.0,0.,12.0
1979-08-06 18:36:04.000 ,0,0,0.,12.0,0.,12.0,0.,12.0,0.,12.0
1979-08-06 18:36:16.000 ,0,0,0.,12.0,0.,12.0,0.,12.0,0.,12.0
1979-08-06 18:36:28.000 ,0,0,0.,12.0,0.,12.0,0.,12.0,0.,12.0
1979-08-06 18:36:40.000 ,0,0,0.,12.0,0.,12.0,0.,12.0,0.,12.0
1979-08-06 18:36:52.000 ,0,0,0.,12.0,0.,12.0,0.,12.0,0.,12.0
1979-08-06 18:37:04.000 ,0,0,0.,12.0,0.,12.0,0.,12.0,0.,12.0
1979-08-06 18:37:16.000 ,0,0,0.,12.0,0.,12.0,0.,12.0,0.,12.0
1979-08-06 18:37:28.000 ,0,0,0.,12.0,0.,12.0,0.,12.0,0.,12.0
1979-08-06 18:37:40.000 ,1,0,0.,12.0,0.,12.0,0.,12.0,0.,12.0
1979-08-06 18:37:52.000 ,1,0,0.,12.0,0.,12.0,0.,12.0,0.,12.0
1979-08-06 18:38:04.000 ,1,0,0.,12.0,0.,12.0,0.,12.0,0.,12.0
1979-08-06 18:38:16.000 ,1,0,0.,12.0,0.,12.0,0.,12.0,0.,12.0
1979-08-06 18:38:28.000 ,2,0,0.,12.0,0.,12.0,0.,12.0,0.,12.0
1979-08-06 18:38:40.000 ,2,0,0.,12.0,0.,12.0,0.,12.0,0.,12.0
1979-08-06 18:38:52.000 ,2,0,0.,12.0,0.,12.0,0.,12.0,0.,12.0
1979-08-06 18:39:04.000 ,2,0,0.,12.0,0.,12.0,0.,12.0,0.,12.0
1979-08-06 18:39:16.000 ,3,0,0.,12.0,0.,12.0,0.,12.0,0.,12.0
1979-08-06 18:39:28.000 ,3,0,0.,12.0,0.,12.0,0.,12.0,0.,12.0
1979-08-06 18:39:40.000 ,3,0,0.,12.0,0.,12.0,0.,12.0,0.,12.0
1979-08-06 18:39:52.000 ,3,0,0.,12.0,0.,12.0,0.,12.0,0.,12.0
1979-08-06 18:40:04.000 ,4,0,0.,12.0,0.,12.0,0.,12.0,0.,12.0
1979-08-06 18:40:16.000 ,4,0,0.,12.0,0.,12.0,0.,12.0,0.,12.0
1979-08-06 18:40:28.000 ,4,0,0.,12.0,0.,12.0,0.,12.0,0.,12.0
1979-08-06 18:40:40.000 ,4,0,0.,12.0,0.,12.0,0.,12.0,0.,12.0
1979-08-06 18:40:52.000 ,5,0,0.,12.0,0.,12.0,0.,12.0,0.,12.0
1979-08-06 18:41:04.000 ,5,0,0.,12.0,0.,12.0,0.,12.0,0.,12.0
1979-08-06 18:41:16.000 ,5,0,0.,12.0,0.,12.0,0.,12.0,0.,12.0
1979-08-06 18:41:28.000 ,5,0,0.,12.0,0.,12.0,0.,12.0,0.,12.0
1979-08-06 18:41:40.000 ,6,0,0.,12.0,0.,12.0,0.,12.0,0.,12.0
1979-08-06 18:41:52.000 ,6,0,0.,12.0,0.,12.0,0.,12.0,0.,12.0
1979-08-06 18:42:04.000 ,6,0,0.,12.0,0.,12.0,0.,12.0,0.,12.0
1979-08-06 18:42:16.000 ,6,0,0.,12.0,0.,12.0,0.,12.0,0.,12.0
1979-08-06 18:42:28.000 ,7,0,0.,12.0,0.,12.0,0.,12.0,0.,12.0
1979-08-06 18:42:40.000 ,7,0,0.,12.0,0.,12.0,0.,12.0,0.,12.0
1979-08-06 18:42:52.000 ,7,0,0.,12.0,0.,12.0,0.,12.0,0.,12.0
1979-08-06 18:43:04.000 ,7,0,0.,12.0,0.,12.0,0.,12.0,0.,12.0
1979-08-06 18:43:16.000 ,3,1,0.,12.0,0.,12.0,0.,12.0,0.,12.0
1979-08-06 18:43:28.000 ,3,1,0.,12.0,0.,12.0,0.,12.0,0.,12.0
1979-08-06 18:43:40.000 ,0,1,0.,12.0,0.,12.0,0.,12.0,0.,12.0
1979-08-06 18:43:52.000 ,0,1,0.,12.0,0.,12.0,0.,12.0,0.,12.0
1979-08-06 18:44:04.000 ,4,1,0.,12.0,0.,12.0,0.,12.0,0.,12.0
1979-08-06 18:44:16.000 ,4,1,0.,12.0,0.,12.0,0.,12.0,0.,12.0
1979-08-06 18:44:28.000 ,7,1,0.,12.0,0.,12.0,0.,12.0,0.,12.0
1979-08-06 18:44:40.000 ,7,1,0.,12.0,0.,12.0,0.,12.0,0.,12.0
1979-08-06 18:44:52.000 ,3,1,0.,12.0,0.,12.0,0.,12.0,0.,12.0
1979-08-06 18:45:04.000 ,3,1,0.,12.0,0.,12.0,0.,12.0,0.,12.0
1979-08-06 18:45:16.000 ,0,1,0.,12.0,0.,12.0,0.,12.0,0.,12.0
1979-08-06 18:45:28.000 ,0,1,0.,12.0,0.,12.0,0.,12.0,0.,12.0
1979-08-06 18:45:40.000 ,4,1,0.,12.0,0.,12.0,0.,12.0,0.,12.0
1979-08-06 18:45:52.000 ,4,1,0.,12.0,0.,12.0,0.,12.0,0.,12.0
1979-08-06 18:46:04.000 ,7,1,0.,12.0,0.,12.0,0.,12.0,0.,12.0
1979-08-06 18:46:16.000 ,7,1,0.,12.0,0.,12.0,0.,12.0,0.,12.0
1979-08-06 18:46:28.000 ,3,1,0.,12.0,0.,12.0,0.,12.0,0.,12.0
1979-08-06 18:46:40.000 ,3,1,0.,12.0,0.,12.0,0.,12.0,0.,12.0
1979-08-06 18:46:52.000 ,0,1,0.,12.0,0.,12.0,0.,12.0,0.,12.0
1979-08-06 18:47:04.000 ,0,1,0.,12.0,0.,12.0,0.,12.0,0.,12.0
1979-08-06 18:47:16.000 ,4,1,0.,12.0,0.,12.0,0.,12.0,0.,12.0
1979-08-06 18:47:28.000 ,4,1,0.,12.0,0.,12.0,0.,12.0,0.,12.0
1979-08-06 18:47:40.000 ,7,1,0.,12.0,0.,12.0,0.,12.0,0.,12.0
1979-08-06 18:47:52.000 ,7,1,0.,12.0,0.,12.0,0.,12.0,0.,12.0
1979-08-06 18:48:04.000 ,3,1,0.,12.0,0.,12.0,0.,12.0,0.,12.0
1979-08-06 18:48:16.000 ,3,1,0.,12.0,0.,12.0,0.,12.0,0.,12.0
1979-08-06 18:48:28.000 ,0,1,0.,12.0,0.,12.0,0.,12.0,0.,12.0
1979-08-06 18:48:40.000 ,0,1,0.,12.0,0.,12.0,0.,12.0,0.,12.0
1979-08-06 18:48:52.000 ,4,1,0.,12.0,0.,12.0,0.,12.0,0.,12.0
1979-08-06 18:49:04.000 ,4,1,0.,12.0,0.,12.0,0.,12.0,0.,12.0
1979-08-06 18:49:16.000 ,7,1,0.,12.0,0.,12.0,0.,12.0,0.,12.0
1979-08-06 18:49:28.000 ,7,1,0.,12.0,0.,12.0,0.,12.0,0.,12.0
1979-08-06 18:49:40.000 ,3,1,0.,12.0,0.,12.0,0.,12.0,0.,12.0
1979-08-06 18:49:52.000 ,3,1,0.,12.0,0.,12.0,0.,12.0,0.,12.0
1979-08-06 18:50:04.000 ,0,1,0.,12.0,0.,12.0,0.,12.0,0.,12.0
1979-08-06 18:50:16.000 ,0,1,0.,12.0,0.,12.0,0.,12.0,0.,12.0
1979-08-06 18:50:28.000 ,4,1,0.,12.0,0.,12.0,0.,12.0,0.,12.0
1979-08-06 18:50:40.000 ,4,1,0.,12.0,0.,12.0,0.,12.0,0.,12.0
1979-08-06 18:50:52.000 ,7,1,0.,12.0,0.,12.0,0.,12.0,0.,12.0
1979-08-06 18:51:04.000 ,7,1,0.,12.0,0.,12.0,0.,12.0,0.,12.0
1979-08-06 18:51:16.000 ,3,1,0.,12.0,0.,12.0,0.,12.0,0.,12.0
1979-08-06 18:51:28.000 ,3,1,0.,12.0,0.,12.0,0.,12.0,0.,12.0
1979-08-06 18:51:40.000 ,0,1,0.,12.0,0.,12.0,0.,12.0,0.,12.0
1979-08-06 18:51:52.000 ,0,1,0.,12.0,0.,12.0,0.,12.0,0.,12.0
1979-08-06 18:52:04.000 ,4,1,0.,12.0,0.,12.0,0.,12.0,0.,12.0
1979-08-06 18:52:16.000 ,4,1,0.,12.0,0.,12.0,0.,12.0,0.,12.0
1979-08-06 18:52:28.000 ,7,1,0.,12.0,0.,12.0,0.,12.0,0.,12.0
1979-08-06 18:52:40.000 ,7,1,0.,12.0,0.,12.0,0.,12.0,0.,12.0
1979-08-06 18:52:52.000 ,3,1,0.,12.0,0.,12.0,0.,12.0,0.,12.0
1979-08-06 18:53:04.000 ,3,1,0.,12.0,0.,12.0,0.,12.0,0.,12.0
1979-08-06 18:53:16.000 ,0,1,0.,12.0,0.,12.0,0.,12.0,0.,12.0
1979-08-06 18:53:28.000 ,0,1,1.,12.0,0.,12.0,0.,12.0,0.,12.0
1979-08-06 18:53:40.000 ,0,0,0.,12.0,0.,12.0,0.,12.0,0.,12.0
1979-08-06 18:53:52.000 ,0,0,0.,12.0,0.,12.0,0.,12.0,0.,12.0
1979-08-06 18:54:04.000 ,0,0,0.,12.0,0.,12.0,0.,12.0,0.,12.0
1979-08-06 18:54:16.000 ,0,0,0.,12.0,0.,12.0,0.,12.0,0.,12.0
1979-08-06 18:54:28.000 ,5,0,0.,12.0,0.,12.0,0.,12.0,0.,12.0
1979-08-06 18:54:40.000 ,5,0,0.,12.0,0.,12.0,0.,12.0,0.,12.0
1979-08-06 18:54:52.000 ,5,0,0.,12.0,0.,12.0,0.,12.0,0.,12.0
1979-08-06 18:55:04.000 ,5,0,0.,12.0,0.,12.0,0.,12.0,0.,12.0
1979-08-06 18:55:16.000 ,4,0,0.,12.0,0.,12.0,0.,12.0,0.,12.0
1979-08-06 18:55:28.000 ,4,0,0.,12.0,0.,12.0,0.,12.0,0.,12.0
1979-08-06 18:55:40.000 ,4,0,0.,12.0,0.,12.0,0.,12.0,0.,12.0
1979-08-06 18:55:52.000 ,4,0,0.,12.0,0.,12.0,0.,12.0,0.,12.0
1979-08-06 18:56:04.000 ,3,0,0.,12.0,0.,12.0,0.,12.0,0.,12.0
1979-08-06 18:56:16.000 ,3,0,0.,12.0,0.,12.0,0.,12.0,0.,12.0
1979-08-06 18:56:28.000 ,3,0,0.,12.0,0.,12.0,0.,12.0,0.,12.0
1979-08-06 18:56:40.000 ,3,0,0.,12.0,0.,12.0,0.,12.0,0.,12.0
1979-08-06 18:56:52.000 ,2,0,0.,12.0,0.,12.0,0.,12.0,0.,12.0
1979-08-06 18:57:04.000 ,2,0,0.,12.0,0.,12.0,0.,12.0,0.,12.0
1979-08-06 18:57:16.000 ,2,0,0.,12.0,0.,12.0,0.,12.0,0.,12.0
1979-08-06 18:57:28.000 ,2,0,0.,12.0,0.,12.0,0.,12.0,0.,12.0
1979-08-06 18:57:40.000 ,1,0,0.,12.0,0.,12.0,0.,12.0,0.,12.0
1979-08-06 18:57:52.000 ,1,0,0.,12.0,0.,12.0,0.,12.0,0.,12.0
1979-08-06 18:58:04.000 ,1,0,0.,12.0,0.,12.0,0.,12.0,0.,12.0
1979-08-06 18:58:16.000 ,1,0,0.,12.0,0.,12.0,0.,12.0,0.,12.0
1979-08-06 18:58:28.000 ,0,0,0.,12.0,0.,12.0,0.,12.0,0.,12.0
1979-08-06 18:58:40.000 ,0,0,0.,12.0,0.,12.0,0.,12.0,0.,12.0
1979-08-06 18:58:52.000 ,0,0,0.,12.0,0.,12.0,0.,12.0,0.,12.0
1979-08-06 18:59:04.000 ,0,0,0.,12.0,0.,12.0,0.,12.0,0.,12.0
1979-08-06 18:59:16.000 ,0,0,0.,12.0,0.,12.0,0.,12.0,0.,12.0
1979-08-06 18:59:28.000 ,0,0,0.,12.0,0.,12.0,0.,12.0,0.,12.0
1979-08-06 18:59:40.000 ,0,0,0.,12.0,0.,12.0,0.,12.0,0.,12.0
1979-08-06 18:59:52.000 ,0,0,0.,12.0,0.,12.0,0.,12.0,0.,12.0
1979-08-06 19:00:04.000 ,1,0,0.,12.0,0.,12.0,0.,12.0,0.,12.0
1979-08-06 19:00:16.000 ,1,0,0.,12.0,0.,12.0,0.,12.0,0.,12.0
1979-08-06 19:00:28.000 ,1,0,0.,12.0,0.,12.0,0.,12.0,0.,12.0
1979-08-06 19:00:40.000 ,1,0,0.,12.0,0.,12.0,0.,12.0,0.,12.0
1979-08-06 19:00:52.000 ,2,0,0.,12.0,0.,12.0,0.,12.0,0.,12.0
1979-08-06 19:01:04.000 ,2,0,0.,12.0,0.,12.0,0.,12.0,0.,12.0
1979-08-06 19:01:16.000 ,2,0,0.,12.0,0.,12.0,0.,12.0,0.,12.0
1979-08-06 19:01:28.000 ,2,0,0.,12.0,0.,12.0,0.,12.0,0.,12.0
1979-08-06 19:01:40.000 ,3,0,0.,12.0,0.,12.0,0.,12.0,0.,12.0
1979-08-06 19:01:52.000 ,3,0,0.,12.0,0.,12.0,0.,12.0,0.,12.0
1979-08-06 19:02:04.000 ,3,0,0.,12.0,0.,12.0,0.,12.0,0.,12.0
1979-08-06 19:02:16.000 ,3,0,0.,12.0,0.,12.0,0.,12.0,0.,12.0
1979-08-06 19:02:28.000 ,4,0,0.,12.0,0.,12.0,0.,12.0,0.,12.0
1979-08-06 19:02:40.000 ,4,0,0.,12.0,0.,12.0,0.,12.0,0.,12.0
1979-08-06 19:02:52.000 ,4,0,0.,12.0,0.,12.0,0.,12.0,0.,12.0
1979-08-06 19:03:04.000 ,4,0,0.,12.0,0.,12.0,0.,12.0,0.,12.0
1979-08-06 19:03:16.000 ,5,0,0.,12.0,0.,12.0,0.,12.0,0.,12.0
1979-08-06 19:03:28.000 ,5,0,1.,12.0,0.,12.0,0.,12.0,0.,12.0
1979-08-06 19:03:40.000 ,5,0,0.,12.0,0.,12.0,0.,12.0,0.,12.0
1979-08-06 19:03:52.000 ,5,0,0.,12.0,0.,12.0,0.,12.0,0.,12.0
1979-08-06 19:04:04.000 ,6,0,0.,12.0,0.,12.0,0.,12.0,0.,12.0
1979-08-06 19:04:16.000 ,6,0,0.,12.0,0.,12.0,0.,12.0,0.,12.0
1979-08-06 19:04:28.000 ,6,0,0.,12.0,0.,12.0,0.,12.0,0.,12.0
1979-08-06 19:04:40.000 ,6,0,0.,12.0,0.,12.0,0.,12.0,0.,12.0
1979-08-06 19:04:52.000 ,7,0,0.,12.0,0.,12.0,0.,12.0,0.,12.0
1979-08-06 19:05:04.000 ,7,0,0.,12.0,0.,12.0,0.,12.0,0.,12.0
1979-08-06 19:05:16.000 ,7,0,0.,12.0,0.,12.0,0.,12.0,0.,12.0
1979-08-06 19:05:28.000 ,7,0,0.,12.0,0.,12.0,0.,12.0,0.,12.0
1979-08-06 19:05:40.000 ,7,0,0.,12.0,0.,12.0,0.,12.0,0.,12.0
1979-08-06 19:05:52.000 ,7,0,0.,12.0,0.,12.0,0.,12.0,0.,12.0
1979-08-06 19:06:04.000 ,7,0,0.,12.0,0.,12.0,0.,12.0,0.,12.0
1979-08-06 19:06:16.000 ,7,0,0.,12.0,0.,12.0,0.,12.0,0.,12.0
1979-08-06 19:06:28.000 ,6,0,0.,12.0,0.,12.0,0.,12.0,0.,12.0
1979-08-06 19:06:40.000 ,6,0,0.,12.0,0.,12.0,0.,12.0,0.,12.0
1979-08-06 19:06:52.000 ,6,0,0.,12.0,0.,12.0,0.,12.0,0.,12.0
1979-08-06 19:07:04.000 ,6,0,0.,12.0,0.,12.0,0.,12.0,0.,12.0
1979-08-06 19:07:16.000 ,5,0,0.,12.0,0.,12.0,0.,12.0,0.,12.0
1979-08-06 19:07:28.000 ,5,0,0.,12.0,0.,12.0,0.,12.0,0.,12.0
1979-08-06 19:07:40.000 ,5,0,0.,12.0,0.,12.0,0.,12.0,0.,12.0
1979-08-06 19:07:52.000 ,5,0,0.,12.0,0.,12.0,0.,12.0,0.,12.0
1979-08-06 19:08:04.000 ,4,0,0.,12.0,0.,12.0,0.,12.0,0.,12.0
1979-08-06 19:08:16.000 ,4,0,0.,12.0,0.,12.0,0.,12.0,0.,12.0
1979-08-06 19:08:28.000 ,4,0,0.,12.0,0.,12.0,0.,12.0,0.,12.0
1979-08-06 19:08:40.000 ,4,0,0.,12.0,0.,12.0,0.,12.0,0.,12.0
1979-08-06 19:08:52.000 ,3,0,0.,12.0,0.,12.0,0.,12.0,0.,12.0
1979-08-06 19:09:04.000 ,3,0,0.,12.0,0.,12.0,0.,12.0,0.,12.0
1979-08-06 19:09:16.000 ,3,0,0.,12.0,0.,12.0,0.,12.0,0.,12.0
1979-08-06 19:09:28.000 ,3,0,0.,12.0,0.,12.0,0.,12.0,0.,12.0
1979-08-06 19:09:40.000 ,2,0,0.,12.0,0.,12.0,0.,12.0,0.,12.0
1979-08-06 19:09:52.000 ,2,0,0.,12.0,0.,12.0,0.,12.0,0.,12.0
1979-08-06 19:10:04.000 ,2,0,0.,12.0,0.,12.0,0.,12.0,0.,12.0
1979-08-06 19:10:16.000 ,2,0,0.,12.0,0.,12.0,0.,12.0,0.,12.0
1979-08-06 19:10:28.000 ,1,0,0.,12.0,0.,12.0,0.,12.0,0.,12.0
1979-08-06 19:10:40.000 ,1,0,0.,12.0,0.,12.0,0.,12.0,0.,12.0
1979-08-06 19:10:52.000 ,1,0,0.,12.0,0.,12.0,0.,12.0,0.,12.0
1979-08-06 19:11:04.000 ,1,0,0.,12.0,0.,12.0,0.,12.0,0.,12.0
1979-08-06 19:11:16.000 ,0,0,0.,12.0,0.,12.0,0.,12.0,0.,12.0
1979-08-06 19:11:28.000 ,0,0,0.,12.0,0.,12.0,0.,12.0,0.,12.0
1979-08-06 19:11:40.000 ,0,0,0.,12.0,0.,12.0,0.,12.0,0.,12.0
1979-08-06 19:11:52.000 ,0,0,0.,12.0,0.,12.0,0.,12.0,0.,12.0
1979-08-06 19:12:04.000 ,0,0,0.,12.0,0.,12.0,0.,12.0,0.,12.0
1979-08-06 19:12:16.000 ,0,0,0.,12.0,0.,12.0,0.,12.0,0.,12.0
1979-08-06 19:12:28.000 ,0,0,0.,12.0,0.,12.0,0.,12.0,0.,12.0
1979-08-06 19:12:40.000 ,0,0,0.,12.0,0.,12.0,0.,12.0,0.,12.0
1979-08-06 19:12:52.000 ,1,0,0.,12.0,0.,12.0,0.,12.0,0.,12.0
1979-08-06 19:13:04.000 ,1,0,0.,12.0,0.,12.0,0.,12.0,0.,12.0
1979-08-06 19:13:16.000 ,1,0,0.,12.0,0.,12.0,0.,12.0,0.,12.0
1979-08-06 19:13:28.000 ,1,0,0.,12.0,0.,12.0,0.,12.0,0.,12.0
1979-08-06 19:13:40.000 ,2,0,0.,12.0,0.,12.0,0.,12.0,0.,12.0
1979-08-06 19:13:52.000 ,2,0,0.,12.0,0.,12.0,0.,12.0,0.,12.0
1979-08-06 19:14:04.000 ,2,0,0.,12.0,0.,12.0,0.,12.0,0.,12.0
1979-08-06 19:14:16.000 ,2,0,0.,12.0,0.,12.0,0.,12.0,0.,12.0
1979-08-06 19:14:28.000 ,3,0,0.,12.0,0.,12.0,0.,12.0,0.,12.0
1979-08-06 19:14:40.000 ,3,0,0.,12.0,0.,12.0,0.,12.0,0.,12.0
1979-08-06 19:14:52.000 ,3,0,0.,12.0,0.,12.0,0.,12.0,0.,12.0
1979-08-06 19:15:04.000 ,3,0,0.,12.0,0.,12.0,0.,12.0,0.,12.0
1979-08-06 19:15:16.000 ,4,0,0.,12.0,0.,12.0,0.,12.0,0.,12.0
1979-08-06 19:15:28.000 ,4,0,0.,12.0,0.,12.0,0.,12.0,0.,12.0
1979-08-06 19:15:40.000 ,4,0,0.,12.0,0.,12.0,0.,12.0,0.,12.0
1979-08-06 19:15:52.000 ,4,0,0.,12.0,0.,12.0,0.,12.0,0.,12.0
1979-08-06 19:16:04.000 ,5,0,0.,12.0,0.,12.0,0.,12.0,0.,12.0
1979-08-06 19:16:16.000 ,5,0,0.,12.0,0.,12.0,0.,12.0,0.,12.0
1979-08-06 19:16:28.000 ,5,0,0.,12.0,0.,12.0,0.,12.0,0.,12.0
1979-08-06 19:16:40.000 ,5,0,0.,12.0,0.,12.0,0.,12.0,0.,12.0
1979-08-06 19:16:52.000 ,6,0,0.,12.0,0.,12.0,0.,12.0,0.,12.0
1979-08-06 19:17:04.000 ,6,0,0.,12.0,0.,12.0,0.,12.0,0.,12.0
1979-08-06 19:17:16.000 ,6,0,0.,12.0,0.,12.0,0.,12.0,0.,12.0